Location: Newark
(41.6500°N, 71.4833°W)
Time: 17:42:23
(UTC+00:00)

A-11 Canister half - Visible Passes

Search period start: 16 April 2021 00:00
Search period end: 26 April 2021 00:00
Orbit: 1515 x 1685 km, 47.2° (Epoch: 16 April)

Date Brightness Start Highest point End Pass type
(mag) Time Alt. Az. Time Alt. Az. Time Alt. Az.
16 Apr 9.0 01:53:39 10° SSW 02:02:32 50° SE 02:11:45 10° ENE visible
16 Apr 9.0 03:57:40 10° WSW 04:07:13 78° NNW 04:17:10 10° ENE visible
16 Apr 9.3 06:03:28 10° WNW 06:13:07 64° N 06:23:07 10° E visible
16 Apr 9.1 08:08:50 10° WNW 08:18:46 86° SSW 08:28:57 10° ESE visible
17 Apr 9.1 01:30:54 10° SSW 01:39:41 47° SE 01:48:44 10° ENE visible
17 Apr 9.0 03:34:44 10° WSW 03:44:15 80° NNW 03:54:10 10° ENE visible
17 Apr 9.3 05:40:30 10° WNW 05:50:07 64° N 06:00:05 10° E visible
17 Apr 9.1 07:45:54 10° WNW 07:55:49 89° SSW 08:06:00 10° ESE visible
18 Apr 9.2 01:08:10 10° SSW 01:16:49 44° SE 01:25:44 10° ENE visible
18 Apr 8.9 03:11:48 10° WSW 03:21:18 82° NNW 03:31:11 10° ENE visible
18 Apr 9.3 05:17:32 10° W 05:27:07 64° N 05:37:03 10° E visible
18 Apr 9.0 07:22:58 10° WNW 07:32:52 89° NNE 07:43:02 10° ESE visible
18 Apr 9.6 09:28:21 10° WNW 09:37:18 39° SW 09:46:25 10° SSE visible
19 Apr 9.3 00:45:27 10° SSW 00:53:58 42° SE 01:02:44 10° ENE visible
19 Apr 8.9 02:48:53 10° WSW 02:58:21 84° NNW 03:08:14 10° ENE visible
19 Apr 9.3 04:54:35 10° W 05:04:07 63° N 05:14:01 10° E visible
19 Apr 9.0 07:00:03 10° WNW 07:09:54 86° NNE 07:20:04 10° ESE visible
19 Apr 9.5 09:05:22 10° WNW 09:14:25 42° SW 09:23:39 10° SSE visible
20 Apr 9.3 00:22:45 10° SSW 00:31:07 39° SE 00:39:43 10° ENE visible
20 Apr 8.9 02:25:59 10° WSW 02:35:25 87° NNW 02:45:15 10° ENE visible
20 Apr 9.3 04:31:37 10° W 04:41:07 63° N 04:51:00 10° E visible
20 Apr 9.0 06:37:07 10° WNW 06:46:56 84° NNE 06:57:04 10° ESE visible
20 Apr 9.4 08:42:23 10° WNW 08:51:32 44° SW 09:00:54 10° SSE visible
21 Apr 9.4 00:00:05 10° SSW 00:08:17 37° SE 00:16:42 10° ENE visible
21 Apr 8.9 02:03:04 10° WSW 02:12:29 89° NNW 02:22:17 10° ENE visible
21 Apr 9.3 04:08:40 10° W 04:18:08 63° N 04:27:59 10° E visible
21 Apr 9.0 06:14:11 10° WNW 06:23:58 81° NNE 06:34:05 10° ESE visible
21 Apr 9.3 08:19:24 10° WNW 08:28:39 47° SW 08:38:06 10° SSE visible
22 Apr 8.9 01:40:11 10° WSW 01:49:33 88° SSE 01:59:18 10° ENE visible
22 Apr 9.3 03:45:42 10° W 03:55:09 64° N 04:04:57 10° ENE visible
22 Apr 9.1 05:51:16 10° WNW 06:01:00 79° NNE 06:11:06 10° ESE visible
22 Apr 9.2 07:56:27 10° WNW 08:05:46 49° SW 08:15:18 10° SSE visible
23 Apr 8.9 01:17:17 10° WSW 01:26:38 85° SSE 01:36:20 10° ENE visible
23 Apr 9.3 03:22:44 10° W 03:32:09 64° N 03:41:56 10° ENE visible
23 Apr 9.1 05:28:20 10° WNW 05:38:02 77° NNE 05:48:05 10° ESE visible
23 Apr 9.1 07:33:30 10° WNW 07:42:52 52° SW 07:52:30 10° SSE visible
24 Apr 8.9 00:54:25 10° SW 01:03:44 82° SSE 01:13:23 10° ENE visible
24 Apr 9.3 02:59:47 10° W 03:09:10 64° N 03:18:55 10° ENE visible
24 Apr 9.1 05:05:24 10° WNW 05:15:04 75° NNE 05:25:04 10° ESE visible
24 Apr 9.1 07:10:32 10° WNW 07:19:57 55° SW 07:29:39 10° SE visible
24 Apr 10.2 09:18:13 10° W 09:23:23 15° WSW 09:28:36 10° SSW visible
25 Apr 9.0 00:31:32 10° SW 00:40:49 79° SSE 00:50:25 10° ENE visible
25 Apr 9.3 02:36:49 10° W 02:46:11 65° N 02:55:55 10° ENE visible
25 Apr 9.1 04:42:28 10° WNW 04:52:06 74° NNE 05:02:04 10° ESE visible
25 Apr 9.0 06:47:36 10° WNW 06:57:04 58° SW 07:06:49 10° SE visible
25 Apr 10.1 08:54:52 10° W 09:00:33 17° SW 09:06:20 10° SSW visible
